FW9889 Weather Reports


Display with metric or nautical units.
time (UTC)temp
F
wind
direction
speed
MPH
gust
MPH
rain 1hr
in
rain 24hr
in
rain mn
in
humidity
%
barometer
mb
20260504040534 44 0 0.0 0.0 0.00 0.00 0.00 65 1013.6
20260504040046 44 0 0.0 0.0 0.00 0.00 0.00 65 1013.6
20260504035538 44 0 0.0 1.0 0.00 0.00 0.00 65 1013.6
20260504035032 44 0 0.0 1.0 0.00 0.00 0.00 64 1013.5
20260504034546 44 0 0.0 1.0 0.00 0.00 0.00 64 1013.5
20260504034034 44 0 0.0 0.0 0.00 0.00 0.00 64 1013.5
20260504033532 44 0 0.0 1.0 0.00 0.00 0.00 64 1013.5
20260504033047 44 0 0.0 1.0 0.00 0.00 0.00 64 1013.5
20260504032535 45 0 0.0 1.0 0.00 0.00 0.00 64 1013.4
20260504032031 45 0 0.0 0.0 0.00 0.00 0.00 64 1013.4
20260504031544 45 0 0.0 0.0 0.00 0.00 0.00 64 1013.4
20260504031030 45 0 0.0 0.0 0.00 0.00 0.00 63 1013.4
20260504030535 45 0 0.0 1.0 0.00 0.00 0.00 63 1013.3
20260504030046 45 0 0.0 1.0 0.00 0.00 0.00 63 1013.3
20260504025534 45 0 0.0 1.0 0.00 0.00 0.00 62 1013.3
20260504025034 45 0 0.0 1.0 0.00 0.00 0.00 62 1013.3
20260504024540 46 0 0.0 1.0 0.00 0.00 0.00 62 1013.3
20260504024034 46 0 0.0 0.0 0.00 0.00 0.00 61 1013.4
20260504023534 46 0 0.0 1.0 0.00 0.00 0.00 61 1013.3
20260504023044 46 0 0.0 1.0 0.00 0.00 0.00 61 1013.3
20260504022534 46 0 0.0 1.0 0.00 0.00 0.00 60 1013.3
20260504022034 47 0 0.0 1.0 0.00 0.00 0.00 60 1013.3
20260504021548 47 0 0.0 0.0 0.00 0.00 0.00 59 1013.3
20260504021037 47 0 0.0 0.0 0.00 0.00 0.00 58 1013.3
20260504020531 47 0 0.0 0.0 0.00 0.00 0.00 57 1013.3
20260504020045 48 0 0.0 0.0 0.00 0.00 0.00 57 1013.2
20260504015535 48 0 0.0 0.0 0.00 0.00 0.00 56 1013.3
20260504015036 48 0 0.0 0.0 0.00 0.00 0.00 55 1013.3
20260504014558 48 0 0.0 0.0 0.00 0.00 0.00 54 1013.2
20260504014035 49 0 0.0 0.0 0.00 0.00 0.00 53 1013.2
20260504013533 49 0 0.0 0.0 0.00 0.00 0.00 52 1013.1
20260504013050 49 0 0.0 0.0 0.00 0.00 0.00 53 1013.1
20260504012531 49 0 0.0 0.0 0.00 0.00 0.00 52 1013.2
20260504012031 49 0 0.0 0.0 0.00 0.00 0.00 52 1013.1
20260504011544 50 0 0.0 0.0 0.00 0.00 0.00 51 1013.0
20260504011030 50 0 0.0 0.0 0.00 0.00 0.00 51 1013.0
20260504010530 50 0 0.0 0.0 0.00 0.00 0.00 50 1012.8
20260504010048 50 0 0.0 1.0 0.00 0.00 0.00 50 1012.8
20260504005530 51 0 0.0 1.0 0.00 0.00 0.00 49 1012.7
20260504005030 51 0 0.0 1.0 0.00 0.00 0.00 48 1012.6
20260504004545 51 0 0.0 1.0 0.00 0.00 0.00 48 1012.6
20260504004032 52 0 0.0 1.0 0.00 0.00 0.00 48 1012.6
20260504003531 52 0 0.0 1.0 0.00 0.00 0.00 47 1012.5
20260504003050 53 0 0.0 1.0 0.00 0.00 0.00 46 1012.4
20260504002531 53 0 0.0 1.0 0.00 0.00 0.00 46 1012.4
20260504002031 53 0 0.0 1.0 0.00 0.00 0.00 45 1012.3
20260504001546 54 0 0.0 1.0 0.00 0.00 0.00 44 1012.2
20260504001031 54 0 0.0 1.0 0.00 0.00 0.00 43 1012.2
20260504000530 55 0 0.0 1.0 0.00 0.00 0.00 42 1012.2
20260504000048 55 0 0.0 2.0 0.00 0.00 0.00 42 1012.0
20260503235530 55 0 0.0 2.0 0.00 0.00 0.00 41 1011.9
20260503235030 56 0 0.0 3.0 0.00 0.00 0.00 40 1012.0
20260503234548 56 193 0.0 3.0 0.00 0.00 0.00 39 1011.9
20260503234031 56 315 0.0 3.0 0.00 0.00 0.00 39 1011.9
20260503233531 56 202 1.0 3.0 0.00 0.00 0.00 37 1011.9
20260503233043 57 221 0.0 2.0 0.00 0.00 0.00 38 1011.8
20260503232530 57 0 0.0 3.0 0.00 0.00 0.00 37 1011.9
20260503232030 57 0 0.0 3.0 0.00 0.00 0.00 37 1011.8
20260503231542 58 68 0.0 3.0 0.00 0.00 0.00 35 1011.9
20260503231033 58 93 0.0 3.0 0.00 0.00 0.00 36 1011.8
20260503230530 58 159 0.0 8.0 0.00 0.00 0.00 34 1011.8
20260503230047 58 43 0.0 8.0 0.00 0.00 0.00 34 1011.7
20260503225534 58 323 0.0 6.0 0.00 0.00 0.00 34 1011.8
20260503225031 59 75 1.0 6.0 0.00 0.00 0.00 34 1011.7
20260503224544 59 153 2.0 6.0 0.00 0.00 0.00 34 1011.6
20260503224031 59 282 1.0 8.0 0.00 0.00 0.00 33 1011.6
20260503223531 59 0 0.0 8.0 0.00 0.00 0.00 33 1011.6
20260503223045 59 59 2.0 8.0 0.00 0.00 0.00 31 1011.6
20260503222534 59 67 2.0 8.0 0.00 0.00 0.00 32 1011.6
20260503222034 59 13 2.0 8.0 0.00 0.00 0.00 31 1011.6
20260503221545 59 290 2.0 8.0 0.00 0.00 0.00 33 1011.5
20260503221033 59 276 2.0 6.0 0.00 0.00 0.00 34 1011.5
20260503220534 59 19 1.0 9.0 0.00 0.00 0.00 33 1011.6
20260503220050 59 51 2.0 9.0 0.00 0.00 0.00 33 1011.6
20260503215535 59 251 2.0 7.0 0.00 0.00 0.00 31 1011.6
20260503215034 59 168 2.0 9.0 0.00 0.00 0.00 33 1011.6
20260503214546 59 194 2.0 9.0 0.00 0.00 0.00 31 1011.6
20260503214031 59 286 2.0 9.0 0.00 0.00 0.00 33 1011.7
20260503213534 59 344 2.0 11.0 0.00 0.00 0.00 32 1011.6
20260503213045 59 298 3.0 12.0 0.00 0.00 0.00 35 1011.6
20260503212535 59 11 3.0 12.0 0.00 0.00 0.00 34 1011.5
20260503212035 59 244 2.0 12.0 0.00 0.00 0.00 32 1011.5
20260503211544 59 34 3.0 12.0 0.00 0.00 0.00 34 1011.5
20260503211034 59 306 2.0 6.0 0.00 0.00 0.00 33 1011.4
20260503210535 59 235 2.0 6.0 0.00 0.00 0.00 34 1011.5
20260503210047 59 347 2.0 12.0 0.00 0.00 0.00 34 1011.6
20260503205534 59 5 2.0 12.0 0.00 0.00 0.00 36 1011.6
20260503205035 58 13 3.0 12.0 0.00 0.00 0.00 34 1011.7
20260503204545 58 153 2.0 12.0 0.00 0.00 0.00 34 1011.6
20260503204033 59 333 3.0 12.0 0.00 0.00 0.00 35 1011.8
20260503203535 59 217 2.0 10.0 0.00 0.00 0.00 34 1011.6
20260503203052 59 24 2.0 10.0 0.00 0.00 0.00 37 1011.7
20260503202534 59 249 2.0 8.0 0.00 0.00 0.00 35 1011.8
20260503202031 58 140 2.0 14.0 0.00 0.00 0.00 34 1011.7
20260503201552 59 258 2.0 14.0 0.00 0.00 0.00 36 1011.8
20260503201035 59 65 2.0 11.0 0.00 0.00 0.00 35 1011.8
20260503200537 59 259 2.0 11.0 0.00 0.00 0.00 38 1011.8
20260503200049 58 342 3.0 11.0 0.00 0.00 0.00 38 1011.9
20260503195534 58 5 2.0 11.0 0.00 0.00 0.00 38 1012.0
20260503195034 58 309 3.0 11.0 0.00 0.00 0.00 33 1011.9
20260503194545 57 324 2.0 11.0 0.00 0.00 0.00 36 1012.0
20260503194035 56 310 2.0 9.0 0.00 0.00 0.00 36 1012.1
20260503193535 57 315 2.0 8.0 0.00 0.00 0.00 35 1012.0
20260503193052 57 44 3.0 8.0 0.00 0.00 0.00 36 1012.0
20260503192534 57 248 3.0 10.0 0.00 0.00 0.00 37 1012.1
20260503192034 58 315 3.0 12.0 0.00 0.00 0.00 38 1012.1
20260503191550 58 301 4.0 12.0 0.00 0.00 0.00 39 1012.0
20260503191034 57 318 3.0 9.0 0.00 0.00 0.00 37 1012.0
20260503190533 57 32 3.0 9.0 0.00 0.00 0.00 37 1012.1
20260503190047 58 338 3.0 11.0 0.00 0.00 0.00 35 1012.1
20260503185534 57 30 3.0 11.0 0.00 0.00 0.00 35 1012.2
20260503185031 57 215 3.0 11.0 0.00 0.00 0.00 37 1012.3
20260503184555 58 192 2.0 14.0 0.00 0.00 0.00 40 1012.3
20260503184035 57 275 4.0 14.0 0.00 0.00 0.00 36 1012.3
20260503183533 57 206 1.0 8.0 0.00 0.00 0.00 37 1012.3
20260503183055 56 282 3.0 9.0 0.00 0.00 0.00 37 1012.4
20260503182534 56 42 3.0 9.0 0.00 0.00 0.00 36 1012.4
20260503182035 57 355 4.0 9.0 0.00 0.00 0.00 38 1012.5
20260503181554 57 355 3.0 9.0 0.00 0.00 0.00 39 1012.4
20260503181035 56 16 2.0 10.0 0.00 0.00 0.00 39 1012.5
20260503180535 56 297 3.0 11.0 0.00 0.00 0.00 42 1012.5
20260503180045 54 251 2.0 11.0 0.00 0.00 0.00 41 1012.6
20260503175534 55 336 4.0 11.0 0.00 0.00 0.00 36 1012.6
20260503175034 55 259 2.0 10.0 0.00 0.00 0.00 39 1012.6
20260503174544 56 188 2.0 10.0 0.00 0.00 0.00 40 1012.7
20260503174033 55 168 3.0 10.0 0.00 0.00 0.00 39 1012.7
20260503173534 55 221 2.0 11.0 0.00 0.00 0.00 41 1013.0
20260503173056 54 218 2.0 11.0 0.00 0.00 0.00 41 1012.9
20260503172538 53 232 3.0 11.0 0.00 0.00 0.00 43 1013.0
20260503172034 54 290 3.0 11.0 0.00 0.00 0.00 39 1013.1
20260503171545 55 0 2.0 8.0 0.00 0.00 0.00 45 1013.1
20260503171035 53 335 2.0 7.0 0.00 0.00 0.00 44 1013.0
20260503170532 53 249 1.0 7.0 0.00 0.00 0.00 44 1013.1
20260503150531 50 331 3.0 11.0 0.00 0.00 0.00 47 1014.0
20260503131031 47 9 2.0 9.0 0.00 0.00 0.00 56 1013.8
20260503130531 47 355 2.0 8.0 0.00 0.00 0.00 56 1013.7
20260503110531 43 5 1.0 4.0 0.00 0.00 0.00 61 1013.1
20260503081612 43 341 2.0 4.0 0.00 0.00 0.00 59 1011.2
20260503081034 43 336 2.0 4.0 0.00 0.00 0.00 59 1011.2
20260503080535 43 339 1.0 5.0 0.00 0.00 0.00 60 1011.2
20260503072531 43 0 0.0 0.0 0.00 0.00 0.00 62 1011.1
20260503072034 44 0 0.0 2.0 0.00 0.00 0.00 62 1011.2
20260503071548 44 0 0.0 2.0 0.00 0.00 0.00 61 1011.1
20260503071034 44 0 0.0 0.0 0.00 0.00 0.00 60 1011.2
20260503070534 44 0 0.0 1.0 0.00 0.00 0.00 59 1011.2
20260503055030 46 0 0.0 3.0 0.00 0.00 0.00 56 1011.4
20260503054551 46 360 0.0 2.0 0.00 0.00 0.00 56 1011.4
20260503054031 46 0 0.0 2.0 0.00 0.00 0.00 56 1011.4
20260503053530 46 318 0.0 4.0 0.00 0.00 0.00 56 1011.5
20260503053044 46 347 0.0 4.0 0.00 0.00 0.00 56 1011.5
20260503052532 46 341 0.0 4.0 0.00 0.00 0.00 55 1011.5
20260503052031 46 308 1.0 4.0 0.00 0.00 0.00 55 1011.5
20260503051543 46 303 0.0 4.0 0.00 0.00 0.00 55 1011.7
20260503051030 47 288 1.0 4.0 0.00 0.00 0.00 55 1011.7
20260503050530 47 286 0.0 3.0 0.00 0.00 0.00 55 1011.7
20260503050048 47 318 0.0 3.0 0.00 0.00 0.00 54 1011.6
20260503045533 47 0 0.0 1.0 0.00 0.00 0.00 54 1011.8
20260503045030 47 303 0.0 1.0 0.00 0.00 0.00 54 1011.8
20260503044552 47 0 0.0 1.0 0.00 0.00 0.00 54 1011.8
20260503044030 47 0 0.0 3.0 0.00 0.00 0.00 54 1011.9
20260503043531 47 283 0.0 3.0 0.00 0.00 0.00 55 1011.8
20260503043047 47 5 0.0 3.0 0.00 0.00 0.00 53 1011.9
20260503042531 47 360 0.0 2.0 0.00 0.00 0.00 54 1012.0
20260503042031 47 360 0.0 1.0 0.00 0.00 0.00 54 1012.0
20260503041548 47 0 0.0 2.0 0.00 0.00 0.00 53 1012.1
20260503041030 47 0 0.0 2.0 0.00 0.00 0.00 53 1012.0